{"data":{"norad_id":68050,"epoch":"2026-09-19T10:38:43.310112Z","epoch_age_seconds":150822,"freshness":"FRESH","line1":"1 68050U 26041L   26262.44355683  .00021610  00000+0  64876-3 0  9991","line2":"2 68050  53.1577 224.8718 0001707 109.5525 250.5662 15.34405136 31128","mean_motion":15.34405136,"eccentricity":0.0001707,"inclination_deg":53.1577,"raan_deg":224.8718,"arg_perigee_deg":109.5525,"mean_anomaly_deg":250.5662,"bstar":0.00064876,"rev_number":3112,"period_min":93.847443951726,"perigee_km":461.5202461521,"apogee_km":463.85570379855,"semimajor_km":6840.8249749753,"source":"CELESTRAK","updated_at":"2026-09-20T09:00:43.748921Z"}}